owner,sensor,date,latitude,longitude,air_pressure(mBar),qcFlag 
TCOON,ioos:station:TCOON:068:1,2005-06-02T16:00:00Z,27.2970,-97.4049,1007.9,11111222 
TCOON,ioos:station:TCOON:068:1,2005-06-02T19:00:00Z,27.2970,-97.4049,1005.8,11111222 
TCOON,ioos:station:TCOON:068:1,2005-06-03T07:00:00Z,27.2970,-97.4049,1003.4,11111222 
TCOON,ioos:station:TCOON:068:1,2005-06-03T10:00:00Z,27.2970,-97.4049,1003.1,11111222 
TCOON,ioos:station:TCOON:068:1,2005-06-03T12:00:00Z,27.2970,-97.4049,1005.4,11111222 
TCOON,ioos:station:TCOON:068:1,2005-06-03T14:00:00Z,27.2970,-97.4049,1003.6,11111222 
TCOON,ioos:station:TCOON:068:1,2005-06-03T15:00:00Z,27.2970,-97.4049,1004.6,11111222 
TCOON,ioos:station:TCOON:068:1,2005-06-03T21:00:00Z,27.2970,-97.4049,1002.5,11111222 
TCOON,ioos:station:TCOON:068:1,2005-06-04T03:00:00Z,27.2970,-97.4049,1003.8,11111222 
TCOON,ioos:station:TCOON:068:1,2005-06-04T06:00:00Z,27.2970,-97.4049,1004.1,11111222 
TCOON,ioos:station:TCOON:068:1,2005-06-04T07:00:00Z,27.2970,-97.4049,1004.2,11111222 
TCOON,ioos:station:TCOON:068:1,2005-06-04T08:00:00Z,27.2970,-97.4049,1003.7,11111222 
TCOON,ioos:station:TCOON:068:1,2005-06-04T11:00:00Z,27.2970,-97.4049,1004.0,11111222 
TCOON,ioos:station:TCOON:068:1,2005-06-04T15:00:00Z,27.2970,-97.4049,1006.2,11111222 
TCOON,ioos:station:TCOON:068:1,2005-06-04T17:00:00Z,27.2970,-97.4049,1006.2,11111222 
TCOON,ioos:station:TCOON:068:1,2005-06-04T19:00:00Z,27.2970,-97.4049,1005.6,11111222 
TCOON,ioos:station:TCOON:068:1,2005-06-04T21:00:00Z,27.2970,-97.4049,1004.6,11111222 
TCOON,ioos:station:TCOON:068:1,2005-06-05T00:00:00Z,27.2970,-97.4049,1004.6,11111222 
TCOON,ioos:station:TCOON:068:1,2005-06-05T01:00:00Z,27.2970,-97.4049,1004.8,11111222 
TCOON,ioos:station:TCOON:068:1,2005-06-05T02:00:00Z,27.2970,-97.4049,1005.4,11111222 
TCOON,ioos:station:TCOON:068:1,2005-06-05T05:00:00Z,27.2970,-97.4049,1007.5,11111222 
TCOON,ioos:station:TCOON:068:1,2005-06-05T07:00:00Z,27.2970,-97.4049,1008.3,11111222 
TCOON,ioos:station:TCOON:068:1,2005-06-05T08:00:00Z,27.2970,-97.4049,1007.3,11111222 
TCOON,ioos:station:TCOON:068:1,2005-06-05T12:00:00Z,27.2970,-97.4049,1007.0,11111222 
TCOON,ioos:station:TCOON:068:1,2005-06-05T15:00:00Z,27.2970,-97.4049,1009.0,11111222 
TCOON,ioos:station:TCOON:068:1,2005-06-05T18:00:00Z,27.2970,-97.4049,1009.3,11111222 
TCOON,ioos:station:TCOON:068:1,2005-06-05T19:00:00Z,27.2970,-97.4049,1009.4,11111222 
TCOON,ioos:station:TCOON:068:1,2005-06-05T22:00:00Z,27.2970,-97.4049,1008.5,11111222 
TCOON,ioos:station:TCOON:068:1,2005-06-06T01:00:00Z,27.2970,-97.4049,1008.4,11111222 
TCOON,ioos:station:TCOON:068:1,2005-06-06T02:00:00Z,27.2970,-97.4049,1008.8,11111222 
TCOON,ioos:station:TCOON:068:1,2005-06-06T05:00:00Z,27.2970,-97.4049,1010.5,11111222 
TCOON,ioos:station:TCOON:068:1,2005-06-06T08:00:00Z,27.2970,-97.4049,1009.4,11111222 
TCOON,ioos:station:TCOON:068:1,2005-06-06T10:00:00Z,27.2970,-97.4049,1009.1,11111222 
TCOON,ioos:station:TCOON:068:1,2005-06-06T11:00:00Z,27.2970,-97.4049,1009.6,11111222 
TCOON,ioos:station:TCOON:068:1,2005-06-06T12:00:00Z,27.2970,-97.4049,1010.3,11111222 
TCOON,ioos:station:TCOON:068:1,2005-06-06T17:00:00Z,27.2970,-97.4049,1010.9,11111222 
TCOON,ioos:station:TCOON:068:1,2005-06-06T22:00:00Z,27.2970,-97.4049,1007.7,11111222 
TCOON,ioos:station:TCOON:068:1,2005-06-06T23:00:00Z,27.2970,-97.4049,1007.1,11111222 
TCOON,ioos:station:TCOON:068:1,2005-06-07T03:00:00Z,27.2970,-97.4049,1008.0,11111222 
TCOON,ioos:station:TCOON:068:1,2005-06-07T04:00:00Z,27.2970,-97.4049,1008.9,11111222 
TCOON,ioos:station:TCOON:068:1,2005-06-07T07:00:00Z,27.2970,-97.4049,1008.1,11111222 
TCOON,ioos:station:TCOON:068:1,2005-06-07T09:00:00Z,27.2970,-97.4049,1007.6,11111222 
TCOON,ioos:station:TCOON:068:1,2005-06-07T10:00:00Z,27.2970,-97.4049,1007.5,11111222 
TCOON,ioos:station:TCOON:068:1,2005-06-07T11:00:00Z,27.2970,-97.4049,1007.6,11111222 
TCOON,ioos:station:TCOON:068:1,2005-06-07T16:00:00Z,27.2970,-97.4049,1008.9,11111222 
TCOON,ioos:station:TCOON:068:1,2005-06-07T18:00:00Z,27.2970,-97.4049,1008.5,11111222 
TCOON,ioos:station:TCOON:068:1,2005-06-08T00:00:00Z,27.2970,-97.4049,1006.5,11111222 
TCOON,ioos:station:TCOON:068:1,2005-06-08T01:00:00Z,27.2970,-97.4049,1006.6,11111222 
TCOON,ioos:station:TCOON:068:1,2005-06-08T05:00:00Z,27.2970,-97.4049,1008.6,11111222 
TCOON,ioos:station:TCOON:068:1,2005-06-08T06:00:00Z,27.2970,-97.4049,1008.3,11111222 
TCOON,ioos:station:TCOON:068:1,2005-06-08T10:00:00Z,27.2970,-97.4049,1007.4,11111222 
TCOON,ioos:station:TCOON:068:1,2005-06-08T14:00:00Z,27.2970,-97.4049,1008.9,11111222 
TCOON,ioos:station:TCOON:068:1,2005-06-08T19:00:00Z,27.2970,-97.4049,1008.5,11111222 
TCOON,ioos:station:TCOON:068:1,2005-06-08T22:00:00Z,27.2970,-97.4049,1007.3,11111222 
TCOON,ioos:station:TCOON:068:1,2005-06-08T23:00:00Z,27.2970,-97.4049,1006.7,11111222 
TCOON,ioos:station:TCOON:068:1,2005-06-09T00:00:00Z,27.2970,-97.4049,1006.5,11111222 
TCOON,ioos:station:TCOON:068:1,2005-06-09T01:00:00Z,27.2970,-97.4049,1006.8,11111222 
TCOON,ioos:station:TCOON:068:1,2005-06-09T02:00:00Z,27.2970,-97.4049,1007.1,11111222 
TCOON,ioos:station:TCOON:068:1,2005-06-09T03:00:00Z,27.2970,-97.4049,1007.7,11111222 
TCOON,ioos:station:TCOON:068:1,2005-06-09T06:00:00Z,27.2970,-97.4049,1009.0,11111222 
TCOON,ioos:station:TCOON:068:1,2005-06-09T07:00:00Z,27.2970,-97.4049,1009.0,11111222 
TCOON,ioos:station:TCOON:068:1,2005-06-09T08:00:00Z,27.2970,-97.4049,1008.2,11111222 
TCOON,ioos:station:TCOON:068:1,2005-06-09T09:00:00Z,27.2970,-97.4049,1007.4,11111222 
TCOON,ioos:station:TCOON:068:1,2005-06-09T10:00:00Z,27.2970,-97.4049,1007.5,11111222 
TCOON,ioos:station:TCOON:068:1,2005-06-09T12:00:00Z,27.2970,-97.4049,1005.9,11111222 
TCOON,ioos:station:TCOON:068:1,2005-06-09T13:00:00Z,27.2970,-97.4049,1008.3,11111222 
TCOON,ioos:station:TCOON:068:1,2005-06-09T14:00:00Z,27.2970,-97.4049,1008.8,11111222 
TCOON,ioos:station:TCOON:068:1,2005-06-09T16:00:00Z,27.2970,-97.4049,1009.0,11111222 
TCOON,ioos:station:TCOON:068:1,2005-06-09T17:00:00Z,27.2970,-97.4049,1009.0,11111222 
TCOON,ioos:station:TCOON:068:1,2005-06-09T18:00:00Z,27.2970,-97.4049,1008.4,11111222 
TCOON,ioos:station:TCOON:068:1,2005-06-09T19:00:00Z,27.2970,-97.4049,1008.0,11111222 
TCOON,ioos:station:TCOON:068:1,2005-06-09T20:00:00Z,27.2970,-97.4049,1007.5,11111222 
TCOON,ioos:station:TCOON:068:1,2005-06-09T21:00:00Z,27.2970,-97.4049,1007.2,11111222 
TCOON,ioos:station:TCOON:068:1,2005-06-09T22:00:00Z,27.2970,-97.4049,1006.8,11111222 
TCOON,ioos:station:TCOON:068:1,2005-06-10T00:00:00Z,27.2970,-97.4049,1006.3,11111222 
TCOON,ioos:station:TCOON:068:1,2005-06-10T03:00:00Z,27.2970,-97.4049,1007.4,11111222 
TCOON,ioos:station:TCOON:068:1,2005-06-10T04:00:00Z,27.2970,-97.4049,1007.5,11111222 
TCOON,ioos:station:TCOON:068:1,2005-06-10T05:00:00Z,27.2970,-97.4049,1007.9,11111222 
TCOON,ioos:station:TCOON:068:1,2005-06-10T06:00:00Z,27.2970,-97.4049,1008.0,11111222 
TCOON,ioos:station:TCOON:068:1,2005-06-10T07:00:00Z,27.2970,-97.4049,1007.4,11111222 
TCOON,ioos:station:TCOON:068:1,2005-06-10T08:00:00Z,27.2970,-97.4049,1006.7,11111222 
TCOON,ioos:station:TCOON:068:1,2005-06-10T09:00:00Z,27.2970,-97.4049,1006.9,11111222 
TCOON,ioos:station:TCOON:068:1,2005-06-10T10:00:00Z,27.2970,-97.4049,1005.9,11111222 
TCOON,ioos:station:TCOON:068:1,2005-06-10T11:00:00Z,27.2970,-97.4049,1005.6,11111222 
TCOON,ioos:station:TCOON:068:1,2005-06-10T12:00:00Z,27.2970,-97.4049,1006.5,11111222 
TCOON,ioos:station:TCOON:068:1,2005-06-10T16:00:00Z,27.2970,-97.4049,1007.1,11111222 
TCOON,ioos:station:TCOON:068:1,2005-06-10T17:00:00Z,27.2970,-97.4049,1007.0,11111222 
TCOON,ioos:station:TCOON:068:1,2005-06-10T19:00:00Z,27.2970,-97.4049,1005.5,11111222 
TCOON,ioos:station:TCOON:068:1,2005-06-10T21:00:00Z,27.2970,-97.4049,1004.3,11111222 
TCOON,ioos:station:TCOON:068:1,2005-06-11T00:00:00Z,27.2970,-97.4049,1004.5,11111222 
TCOON,ioos:station:TCOON:068:1,2005-06-11T01:00:00Z,27.2970,-97.4049,1004.8,11111222 
TCOON,ioos:station:TCOON:068:1,2005-06-11T02:00:00Z,27.2970,-97.4049,1005.2,11111222 
TCOON,ioos:station:TCOON:068:1,2005-06-11T03:00:00Z,27.2970,-97.4049,1005.9,11111222 
TCOON,ioos:station:TCOON:068:1,2005-06-11T04:00:00Z,27.2970,-97.4049,1005.8,11111222 
TCOON,ioos:station:TCOON:068:1,2005-06-11T05:00:00Z,27.2970,-97.4049,1006.0,11111222 
TCOON,ioos:station:TCOON:068:1,2005-06-11T06:00:00Z,27.2970,-97.4049,1005.8,11111222 
TCOON,ioos:station:TCOON:068:1,2005-06-11T08:00:00Z,27.2970,-97.4049,1005.4,11111222 
TCOON,ioos:station:TCOON:068:1,2005-06-11T09:00:00Z,27.2970,-97.4049,1004.7,11111222 
TCOON,ioos:station:TCOON:068:1,2005-06-11T10:00:00Z,27.2970,-97.4049,1004.6,11111222 
TCOON,ioos:station:TCOON:068:1,2005-06-11T13:00:00Z,27.2970,-97.4049,1006.0,11111222 
TCOON,ioos:station:TCOON:068:1,2005-06-11T14:00:00Z,27.2970,-97.4049,1006.2,11111222 
TCOON,ioos:station:TCOON:068:1,2005-06-11T15:00:00Z,27.2970,-97.4049,1006.2,11111222 
TCOON,ioos:station:TCOON:068:1,2005-06-11T16:00:00Z,27.2970,-97.4049,1006.1,11111222 
TCOON,ioos:station:TCOON:068:1,2005-06-11T17:00:00Z,27.2970,-97.4049,1006.0,11111222 
TCOON,ioos:station:TCOON:068:1,2005-06-11T18:00:00Z,27.2970,-97.4049,1005.8,11111222 
TCOON,ioos:station:TCOON:068:1,2005-06-11T20:00:00Z,27.2970,-97.4049,1005.1,11111222 
TCOON,ioos:station:TCOON:068:1,2005-06-11T21:00:00Z,27.2970,-97.4049,1004.7,11111222 
TCOON,ioos:station:TCOON:068:1,2005-06-11T22:00:00Z,27.2970,-97.4049,1004.4,11111222 
TCOON,ioos:station:TCOON:068:1,2005-06-12T01:00:00Z,27.2970,-97.4049,1005.2,11111222 
TCOON,ioos:station:TCOON:068:1,2005-06-12T02:00:00Z,27.2970,-97.4049,1006.0,11111222 
TCOON,ioos:station:TCOON:068:1,2005-06-12T04:00:00Z,27.2970,-97.4049,1006.6,11111222 
TCOON,ioos:station:TCOON:068:1,2005-06-12T05:00:00Z,27.2970,-97.4049,1006.6,11111222 
TCOON,ioos:station:TCOON:068:1,2005-06-12T06:00:00Z,27.2970,-97.4049,1006.1,11111222 
TCOON,ioos:station:TCOON:068:1,2005-06-12T07:00:00Z,27.2970,-97.4049,1006.1,11111222 
TCOON,ioos:station:TCOON:068:1,2005-06-12T09:00:00Z,27.2970,-97.4049,1005.9,11111222 
TCOON,ioos:station:TCOON:068:1,2005-06-12T10:00:00Z,27.2970,-97.4049,1005.7,11111222 
TCOON,ioos:station:TCOON:068:1,2005-06-12T11:00:00Z,27.2970,-97.4049,1005.4,11111222 
TCOON,ioos:station:TCOON:068:1,2005-06-12T12:00:00Z,27.2970,-97.4049,1006.0,11111222 
TCOON,ioos:station:TCOON:068:1,2005-06-12T14:00:00Z,27.2970,-97.4049,1007.0,11111222 
TCOON,ioos:station:TCOON:068:1,2005-06-12T15:00:00Z,27.2970,-97.4049,1007.1,11111222 
TCOON,ioos:station:TCOON:068:1,2005-06-12T16:00:00Z,27.2970,-97.4049,1006.8,11111222 
TCOON,ioos:station:TCOON:068:1,2005-06-12T17:00:00Z,27.2970,-97.4049,1007.1,11111222 
TCOON,ioos:station:TCOON:068:1,2005-06-12T19:00:00Z,27.2970,-97.4049,1007.0,11111222 
TCOON,ioos:station:TCOON:068:1,2005-06-12T20:00:00Z,27.2970,-97.4049,1006.2,11111222 
TCOON,ioos:station:TCOON:068:1,2005-06-12T22:00:00Z,27.2970,-97.4049,1005.4,11111222 
TCOON,ioos:station:TCOON:068:1,2005-06-12T23:00:00Z,27.2970,-97.4049,1005.4,11111222 
TCOON,ioos:station:TCOON:068:1,2005-06-13T00:00:00Z,27.2970,-97.4049,1005.3,11111222 
TCOON,ioos:station:TCOON:068:1,2005-06-13T01:00:00Z,27.2970,-97.4049,1005.8,11111222 
TCOON,ioos:station:TCOON:068:1,2005-06-13T02:00:00Z,27.2970,-97.4049,1006.3,11111222 
TCOON,ioos:station:TCOON:068:1,2005-06-13T03:00:00Z,27.2970,-97.4049,1006.9,11111222 
TCOON,ioos:station:TCOON:068:1,2005-06-13T04:00:00Z,27.2970,-97.4049,1007.1,11111222 
TCOON,ioos:station:TCOON:068:1,2005-06-13T05:00:00Z,27.2970,-97.4049,1007.2,11111222 
TCOON,ioos:station:TCOON:068:1,2005-06-13T06:00:00Z,27.2970,-97.4049,1007.7,11111222 
TCOON,ioos:station:TCOON:068:1,2005-06-13T08:00:00Z,27.2970,-97.4049,1007.5,11111222 
TCOON,ioos:station:TCOON:068:1,2005-06-13T10:00:00Z,27.2970,-97.4049,1007.8,11111222 
TCOON,ioos:station:TCOON:068:1,2005-06-13T11:00:00Z,27.2970,-97.4049,1007.9,11111222 
TCOON,ioos:station:TCOON:068:1,2005-06-13T12:00:00Z,27.2970,-97.4049,1008.2,11111222 
TCOON,ioos:station:TCOON:068:1,2005-06-13T13:00:00Z,27.2970,-97.4049,1008.6,11111222 
TCOON,ioos:station:TCOON:068:1,2005-06-13T14:00:00Z,27.2970,-97.4049,1008.7,11111222 
TCOON,ioos:station:TCOON:068:1,2005-06-13T15:00:00Z,27.2970,-97.4049,1008.9,11111222 
TCOON,ioos:station:TCOON:068:1,2005-06-13T17:00:00Z,27.2970,-97.4049,1008.9,11111222 
TCOON,ioos:station:TCOON:068:1,2005-06-13T18:00:00Z,27.2970,-97.4049,1008.5,11111222 
TCOON,ioos:station:TCOON:068:1,2005-06-13T19:00:00Z,27.2970,-97.4049,1008.4,11111222 
TCOON,ioos:station:TCOON:068:1,2005-06-13T20:00:00Z,27.2970,-97.4049,1008.0,11111222 
TCOON,ioos:station:TCOON:068:1,2005-06-13T21:00:00Z,27.2970,-97.4049,1007.5,11111222 
TCOON,ioos:station:TCOON:068:1,2005-06-14T01:00:00Z,27.2970,-97.4049,1007.3,11111222 
TCOON,ioos:station:TCOON:068:1,2005-06-14T02:00:00Z,27.2970,-97.4049,1008.0,11111222 
TCOON,ioos:station:TCOON:068:1,2005-06-14T04:00:00Z,27.2970,-97.4049,1008.9,11111222 
TCOON,ioos:station:TCOON:068:1,2005-06-14T07:00:00Z,27.2970,-97.4049,1009.0,11111222 
TCOON,ioos:station:TCOON:068:1,2005-06-14T09:00:00Z,27.2970,-97.4049,1009.4,11111222 
TCOON,ioos:station:TCOON:068:1,2005-06-14T12:00:00Z,27.2970,-97.4049,1010.2,11111222 
TCOON,ioos:station:TCOON:068:1,2005-06-14T13:00:00Z,27.2970,-97.4049,1010.7,11111222 
TCOON,ioos:station:TCOON:068:1,2005-06-14T14:00:00Z,27.2970,-97.4049,1011.3,11111222 
TCOON,ioos:station:TCOON:068:1,2005-06-14T16:00:00Z,27.2970,-97.4049,1011.7,11111222 
TCOON,ioos:station:TCOON:068:1,2005-06-14T17:00:00Z,27.2970,-97.4049,1011.6,11111222 
TCOON,ioos:station:TCOON:068:1,2005-06-14T18:00:00Z,27.2970,-97.4049,1012.0,11111222 
TCOON,ioos:station:TCOON:068:1,2005-06-14T19:00:00Z,27.2970,-97.4049,1011.8,11111222 
TCOON,ioos:station:TCOON:068:1,2005-06-14T20:00:00Z,27.2970,-97.4049,1011.5,11111222 
TCOON,ioos:station:TCOON:068:1,2005-06-14T21:00:00Z,27.2970,-97.4049,1011.3,11111222 
TCOON,ioos:station:TCOON:068:1,2005-06-14T22:00:00Z,27.2970,-97.4049,1011.2,11111222 
TCOON,ioos:station:TCOON:068:1,2005-06-15T00:00:00Z,27.2970,-97.4049,1011.1,11111222 
TCOON,ioos:station:TCOON:068:1,2005-06-15T01:00:00Z,27.2970,-97.4049,1011.5,11111222 
TCOON,ioos:station:TCOON:068:1,2005-06-15T03:00:00Z,27.2970,-97.4049,1012.7,11111222 
TCOON,ioos:station:TCOON:068:1,2005-06-15T04:00:00Z,27.2970,-97.4049,1013.1,11111222 
TCOON,ioos:station:TCOON:068:1,2005-06-15T06:00:00Z,27.2970,-97.4049,1013.0,11111222 
TCOON,ioos:station:TCOON:068:1,2005-06-15T07:00:00Z,27.2970,-97.4049,1012.4,11111222 
TCOON,ioos:station:TCOON:068:1,2005-06-15T08:00:00Z,27.2970,-97.4049,1011.9,11111222 
TCOON,ioos:station:TCOON:068:1,2005-06-15T10:00:00Z,27.2970,-97.4049,1011.7,11111222 
TCOON,ioos:station:TCOON:068:1,2005-06-15T11:00:00Z,27.2970,-97.4049,1012.3,11111222 
TCOON,ioos:station:TCOON:068:1,2005-06-15T12:00:00Z,27.2970,-97.4049,1012.7,11111222 
TCOON,ioos:station:TCOON:068:1,2005-06-15T13:00:00Z,27.2970,-97.4049,1013.2,11111222 
TCOON,ioos:station:TCOON:068:1,2005-06-15T16:00:00Z,27.2970,-97.4049,1014.2,11111222 
TCOON,ioos:station:TCOON:068:1,2005-06-15T17:00:00Z,27.2970,-97.4049,1014.2,11111222 
TCOON,ioos:station:TCOON:068:1,2005-06-15T18:00:00Z,27.2970,-97.4049,1013.8,11111222 
TCOON,ioos:station:TCOON:068:1,2005-06-15T19:00:00Z,27.2970,-97.4049,1013.3,11111222 
TCOON,ioos:station:TCOON:068:1,2005-06-15T20:00:00Z,27.2970,-97.4049,1012.7,11111222 
TCOON,ioos:station:TCOON:068:1,2005-06-15T21:00:00Z,27.2970,-97.4049,1012.2,11111222 
TCOON,ioos:station:TCOON:068:1,2005-06-15T22:00:00Z,27.2970,-97.4049,1011.8,11111222 
TCOON,ioos:station:TCOON:068:1,2005-06-15T23:00:00Z,27.2970,-97.4049,1011.5,11111222 
TCOON,ioos:station:TCOON:068:1,2005-06-16T00:00:00Z,27.2970,-97.4049,1011.5,11111222 
TCOON,ioos:station:TCOON:068:1,2005-06-16T01:00:00Z,27.2970,-97.4049,1011.6,11111222 
TCOON,ioos:station:TCOON:068:1,2005-06-16T02:00:00Z,27.2970,-97.4049,1011.8,11111222 
TCOON,ioos:station:TCOON:068:1,2005-06-16T03:00:00Z,27.2970,-97.4049,1012.1,11111222 
TCOON,ioos:station:TCOON:068:1,2005-06-16T04:00:00Z,27.2970,-97.4049,1012.2,11111222 
TCOON,ioos:station:TCOON:068:1,2005-06-16T06:00:00Z,27.2970,-97.4049,1012.0,11111222 
TCOON,ioos:station:TCOON:068:1,2005-06-16T07:00:00Z,27.2970,-97.4049,1011.5,11111222 
TCOON,ioos:station:TCOON:068:1,2005-06-16T08:00:00Z,27.2970,-97.4049,1011.1,11111222 
TCOON,ioos:station:TCOON:068:1,2005-06-16T09:00:00Z,27.2970,-97.4049,1011.1,11111222 
TCOON,ioos:station:TCOON:068:1,2005-06-16T10:00:00Z,27.2970,-97.4049,1010.9,11111222 
TCOON,ioos:station:TCOON:068:1,2005-06-16T11:00:00Z,27.2970,-97.4049,1011.3,11111222 
TCOON,ioos:station:TCOON:068:1,2005-06-16T12:00:00Z,27.2970,-97.4049,1012.0,11111222 
TCOON,ioos:station:TCOON:068:1,2005-06-16T15:00:00Z,27.2970,-97.4049,1013.3,11111222 
TCOON,ioos:station:TCOON:068:1,2005-06-16T16:00:00Z,27.2970,-97.4049,1013.1,11111222 
TCOON,ioos:station:TCOON:068:1,2005-06-16T17:00:00Z,27.2970,-97.4049,1013.0,11111222 
TCOON,ioos:station:TCOON:068:1,2005-06-16T18:00:00Z,27.2970,-97.4049,1012.3,11111222 
TCOON,ioos:station:TCOON:068:1,2005-06-16T19:00:00Z,27.2970,-97.4049,1011.6,11111222 
TCOON,ioos:station:TCOON:068:1,2005-06-16T20:00:00Z,27.2970,-97.4049,1010.8,11111222 
TCOON,ioos:station:TCOON:068:1,2005-06-16T21:00:00Z,27.2970,-97.4049,1010.0,11111222 
TCOON,ioos:station:TCOON:068:1,2005-06-16T22:00:00Z,27.2970,-97.4049,1009.1,11111222 
TCOON,ioos:station:TCOON:068:1,2005-06-16T23:00:00Z,27.2970,-97.4049,1008.4,11111222 
TCOON,ioos:station:TCOON:068:1,2005-06-17T00:00:00Z,27.2970,-97.4049,1008.4,11111222 
TCOON,ioos:station:TCOON:068:1,2005-06-17T01:00:00Z,27.2970,-97.4049,1008.5,11111222 
TCOON,ioos:station:TCOON:068:1,2005-06-17T02:00:00Z,27.2970,-97.4049,1008.7,11111222 
TCOON,ioos:station:TCOON:068:1,2005-06-17T03:00:00Z,27.2970,-97.4049,1009.1,11111222 
TCOON,ioos:station:TCOON:068:1,2005-06-17T04:00:00Z,27.2970,-97.4049,1009.2,11111222 
TCOON,ioos:station:TCOON:068:1,2005-06-17T05:00:00Z,27.2970,-97.4049,1009.5,11111222 
TCOON,ioos:station:TCOON:068:1,2005-06-17T06:00:00Z,27.2970,-97.4049,1009.2,11111222 
TCOON,ioos:station:TCOON:068:1,2005-06-17T07:00:00Z,27.2970,-97.4049,1008.8,11111222 
TCOON,ioos:station:TCOON:068:1,2005-06-17T08:00:00Z,27.2970,-97.4049,1008.4,11111222 
TCOON,ioos:station:TCOON:068:1,2005-06-17T09:00:00Z,27.2970,-97.4049,1008.0,11111222 
TCOON,ioos:station:TCOON:068:1,2005-06-17T10:00:00Z,27.2970,-97.4049,1008.1,11111222 
TCOON,ioos:station:TCOON:068:1,2005-06-17T11:00:00Z,27.2970,-97.4049,1008.2,11111222 
TCOON,ioos:station:TCOON:068:1,2005-06-17T12:00:00Z,27.2970,-97.4049,1008.5,11111222 
TCOON,ioos:station:TCOON:068:1,2005-06-17T13:00:00Z,27.2970,-97.4049,1008.9,11111222 
TCOON,ioos:station:TCOON:068:1,2005-06-17T14:00:00Z,27.2970,-97.4049,1009.1,11111222 
TCOON,ioos:station:TCOON:068:1,2005-06-17T15:00:00Z,27.2970,-97.4049,1008.9,11111222 
TCOON,ioos:station:TCOON:068:1,2005-06-17T16:00:00Z,27.2970,-97.4049,1008.8,11111222 
TCOON,ioos:station:TCOON:068:1,2005-06-17T17:00:00Z,27.2970,-97.4049,1008.9,11111222 
TCOON,ioos:station:TCOON:068:1,2005-06-17T18:00:00Z,27.2970,-97.4049,1008.4,11111222 
TCOON,ioos:station:TCOON:068:1,2005-06-17T19:00:00Z,27.2970,-97.4049,1007.4,11111222 
TCOON,ioos:station:TCOON:068:1,2005-06-17T20:00:00Z,27.2970,-97.4049,1006.8,11111222 
TCOON,ioos:station:TCOON:068:1,2005-06-17T21:00:00Z,27.2970,-97.4049,1006.4,11111222 
TCOON,ioos:station:TCOON:068:1,2005-06-17T22:00:00Z,27.2970,-97.4049,1005.9,11111222 
TCOON,ioos:station:TCOON:068:1,2005-06-17T23:00:00Z,27.2970,-97.4049,1005.4,11111222 
TCOON,ioos:station:TCOON:068:1,2005-06-18T00:00:00Z,27.2970,-97.4049,1005.3,11111222 
TCOON,ioos:station:TCOON:068:1,2005-06-18T01:00:00Z,27.2970,-97.4049,1005.6,11111222 
TCOON,ioos:station:TCOON:068:1,2005-06-18T02:00:00Z,27.2970,-97.4049,1005.8,11111222 
TCOON,ioos:station:TCOON:068:1,2005-06-18T03:00:00Z,27.2970,-97.4049,1006.6,11111222 
TCOON,ioos:station:TCOON:068:1,2005-06-18T04:00:00Z,27.2970,-97.4049,1007.5,11111222 
TCOON,ioos:station:TCOON:068:1,2005-06-18T05:00:00Z,27.2970,-97.4049,1008.1,11111222 
TCOON,ioos:station:TCOON:068:1,2005-06-18T06:00:00Z,27.2970,-97.4049,1008.1,11111222 
TCOON,ioos:station:TCOON:068:1,2005-06-18T07:00:00Z,27.2970,-97.4049,1007.8,11111222 
TCOON,ioos:station:TCOON:068:1,2005-06-18T08:00:00Z,27.2970,-97.4049,1007.5,11111222 
TCOON,ioos:station:TCOON:068:1,2005-06-18T09:00:00Z,27.2970,-97.4049,1007.1,11111222 
TCOON,ioos:station:TCOON:068:1,2005-06-18T10:00:00Z,27.2970,-97.4049,1007.4,11111222 
TCOON,ioos:station:TCOON:068:1,2005-06-18T11:00:00Z,27.2970,-97.4049,1007.7,11111222 
TCOON,ioos:station:TCOON:068:1,2005-06-18T12:00:00Z,27.2970,-97.4049,1008.1,11111222 
TCOON,ioos:station:TCOON:068:1,2005-06-18T13:00:00Z,27.2970,-97.4049,1008.6,11111222 
TCOON,ioos:station:TCOON:068:1,2005-06-18T14:00:00Z,27.2970,-97.4049,1009.2,11111222 
TCOON,ioos:station:TCOON:068:1,2005-06-18T15:00:00Z,27.2970,-97.4049,1009.4,11111222 
TCOON,ioos:station:TCOON:068:1,2005-06-18T16:00:00Z,27.2970,-97.4049,1009.3,11111222 
TCOON,ioos:station:TCOON:068:1,2005-06-18T17:00:00Z,27.2970,-97.4049,1008.9,11111222 
TCOON,ioos:station:TCOON:068:1,2005-06-18T18:00:00Z,27.2970,-97.4049,1008.7,11111222 
TCOON,ioos:station:TCOON:068:1,2005-06-18T19:00:00Z,27.2970,-97.4049,1008.5,11111222 
TCOON,ioos:station:TCOON:068:1,2005-06-18T20:00:00Z,27.2970,-97.4049,1008.1,11111222 
TCOON,ioos:station:TCOON:068:1,2005-06-18T21:00:00Z,27.2970,-97.4049,1008.2,11111222 
TCOON,ioos:station:TCOON:068:1,2005-06-18T22:00:00Z,27.2970,-97.4049,1007.9,11111222 
TCOON,ioos:station:TCOON:068:1,2005-06-18T23:00:00Z,27.2970,-97.4049,1007.7,11111222 
TCOON,ioos:station:TCOON:068:1,2005-06-19T00:00:00Z,27.2970,-97.4049,1008.0,11111222 
TCOON,ioos:station:TCOON:068:1,2005-06-19T01:00:00Z,27.2970,-97.4049,1008.6,11111222 
TCOON,ioos:station:TCOON:068:1,2005-06-19T02:00:00Z,27.2970,-97.4049,1009.0,11111222 
TCOON,ioos:station:TCOON:068:1,2005-06-19T03:00:00Z,27.2970,-97.4049,1009.7,11111222 
TCOON,ioos:station:TCOON:068:1,2005-06-19T04:00:00Z,27.2970,-97.4049,1009.8,11111222 
TCOON,ioos:station:TCOON:068:1,2005-06-19T05:00:00Z,27.2970,-97.4049,1009.7,11111222 
TCOON,ioos:station:TCOON:068:1,2005-06-19T06:00:00Z,27.2970,-97.4049,1009.5,11111222 
TCOON,ioos:station:TCOON:068:1,2005-06-19T07:00:00Z,27.2970,-97.4049,1009.8,11111222 
TCOON,ioos:station:TCOON:068:1,2005-06-19T08:00:00Z,27.2970,-97.4049,1009.8,11111222 
TCOON,ioos:station:TCOON:068:1,2005-06-19T09:00:00Z,27.2970,-97.4049,1009.9,11111222 
TCOON,ioos:station:TCOON:068:1,2005-06-19T10:00:00Z,27.2970,-97.4049,1010.1,11111222 
TCOON,ioos:station:TCOON:068:1,2005-06-19T11:00:00Z,27.2970,-97.4049,1010.5,11111222 
TCOON,ioos:station:TCOON:068:1,2005-06-19T12:00:00Z,27.2970,-97.4049,1011.0,11111222 
TCOON,ioos:station:TCOON:068:1,2005-06-19T13:00:00Z,27.2970,-97.4049,1011.6,11111222 
TCOON,ioos:station:TCOON:068:1,2005-06-19T14:00:00Z,27.2970,-97.4049,1012.4,11111222 
TCOON,ioos:station:TCOON:068:1,2005-06-19T15:00:00Z,27.2970,-97.4049,1012.8,11111222 
TCOON,ioos:station:TCOON:068:1,2005-06-19T16:00:00Z,27.2970,-97.4049,1013.1,11111222 
TCOON,ioos:station:TCOON:068:1,2005-06-19T17:00:00Z,27.2970,-97.4049,1013.1,11111222 
TCOON,ioos:station:TCOON:068:1,2005-06-19T18:00:00Z,27.2970,-97.4049,1013.1,11111222 
TCOON,ioos:station:TCOON:068:1,2005-06-19T19:00:00Z,27.2970,-97.4049,1012.8,11111222 
TCOON,ioos:station:TCOON:068:1,2005-06-19T20:00:00Z,27.2970,-97.4049,1012.3,11111222 
TCOON,ioos:station:TCOON:068:1,2005-06-19T21:00:00Z,27.2970,-97.4049,1011.9,11111222 
TCOON,ioos:station:TCOON:068:1,2005-06-19T23:00:00Z,27.2970,-97.4049,1011.3,11111222 
TCOON,ioos:station:TCOON:068:1,2005-06-20T00:00:00Z,27.2970,-97.4049,1011.5,11111222 
TCOON,ioos:station:TCOON:068:1,2005-06-20T01:00:00Z,27.2970,-97.4049,1011.7,11111222 
TCOON,ioos:station:TCOON:068:1,2005-06-20T02:00:00Z,27.2970,-97.4049,1012.2,11111222 
TCOON,ioos:station:TCOON:068:1,2005-06-20T03:00:00Z,27.2970,-97.4049,1012.8,11111222 
TCOON,ioos:station:TCOON:068:1,2005-06-20T04:00:00Z,27.2970,-97.4049,1013.4,11111222 
TCOON,ioos:station:TCOON:068:1,2005-06-20T05:00:00Z,27.2970,-97.4049,1013.7,11111222 
TCOON,ioos:station:TCOON:068:1,2005-06-20T06:00:00Z,27.2970,-97.4049,1013.7,11111222 